Printer-friendly version

IAU Minor Planet Center

Minor Planet Center

MPEC 2006-Q44 : 2006 QL39

The following Minor Planet Electronic Circular may be linked-to from your own Web pages, but must not otherwise be redistributed electronically.


Read MPEC 2006-Q43 Read MPEC 2006-Q45


M.P.E.C. 2006-Q44                                Issued 2006 Aug. 29, 16:35 UT

     The Minor Planet Electronic Circulars contain information on unusual
         minor planets and routine data on comets.  They are published
   on behalf of Commission 20 of the International Astronomical Union by the
          Minor Planet Center, Smithsonian Astrophysical Observatory,
                          Cambridge, MA 02138, U.S.A.

                  Supported in part by the Brinson Foundation
                  Supported in part by the TABASGO Foundation
             Prepared using the Tamkin Foundation Computer Network

                              MPC@CFA.HARVARD.EDU
          URL http://cfa-www.harvard.edu/iau/mpc.html  ISSN 1523-6714

                                   2006 QL39

Additional Observations:
     K06Q39L  C2006 07 21.38272 00 56 02.44 +05 29 04.1          19.1   EQ044704
     K06Q39L  C2006 07 21.39317 00 56 03.08 +05 29 05.5          19.2   EQ044704
     K06Q39L  C2006 07 21.39403 00 56 03.19 +05 29 04.5          18.7 V EQ044G96
     K06Q39L  C2006 07 21.39855 00 56 03.40 +05 29 04.9          18.7 V EQ044G96
     K06Q39L  C2006 07 21.40311 00 56 03.62 +05 29 05.1          18.8 V EQ044G96
     K06Q39L  C2006 07 21.40341 00 56 03.56 +05 29 05.9          18.8   EQ044704
     K06Q39L  C2006 07 21.40770 00 56 03.84 +05 29 05.3          18.7 V EQ044G96
     K06Q39L  C2006 08 25.32440 01 16 28.18 +04 22 27.7          19.0   EQ044704
     K06Q39L  C2006 08 25.34697 01 16 28.62 +04 22 19.3          19.2   EQ044704
     K06Q39L  C2006 08 25.36966 01 16 29.09 +04 22 10.7          19.3   EQ044704
     K06Q39L  C2006 08 28.30118 01 17 13.27 +04 06 04.4          17.9   EQ044704
     K06Q39L  C2006 08 28.31215 01 17 13.40 +04 06 00.3          18.1   EQ044704
     K06Q39L  C2006 08 28.32314 01 17 13.58 +04 05 56.7          18.3   EQ044704
     K06Q39L  C2006 08 28.33440 01 17 13.74 +04 05 52.5          18.9   EQ044704
     K06Q39L  C2006 08 28.34541 01 17 13.81 +04 05 47.8          17.8   EQ044704

Observer details:
704 Lincoln Laboratory ETS, New Mexico.  Observers M. Bezpalko, L. Manguso,
    D. Torres, R. Kracke, H. Love, G. Spitz, J. Kistler.  Measurers J. Stuart,
    J. Kommers.  1.0-m f/2.15 reflector + CCD.
G96 Mt. Lemmon Survey.  Observer E. J. Christensen.  Measurers E. C. Beshore,
    E. J. Christensen, G. J. Garradd, A. R. Gibbs, A. D. Grauer, R. E. Hill,
    R. A. Kowalski, S. M. Larson, R. H. McNaught.  1.5-m reflector + CCD.

Orbital elements:
2006 QL39
Epoch 2006 Sept. 22.0 TT = JDT 2454000.5                MPC
M 347.28549              (2000.0)            P               Q
n   0.08495574     Peri.  254.19163     +0.39236415     -0.91931623
a   5.1247684      Node   172.49532     +0.90726622     +0.38141364
e   0.6000136      Incl.   13.33947     +0.15138816     +0.09685712
P  11.60           H   13.6           G   0.15           U   5
Residuals in seconds of arc
060721 704 (2.3-  0.0 )   060819 699  1.0-  0.5-    060825 704  0.9+  1.0+
060721 704  0.4-  0.8+    060819 699  0.7-  0.8-    060825 704 (2.8+  0.6-)
060721 G96  0.5+  0.4-    060819 699  0.0   0.5-    060828 704  0.6-  0.2+
060721 G96  0.3+  0.2-    060821 704  0.4+  1.6+    060828 704  0.6-  0.0
060721 G96  0.2+  0.3-    060821 704  0.4-  0.5-    060828 704  0.1+  0.2+
060721 704  0.7-  0.6+    060821 704  0.4+  1.7+    060828 704  0.5+  0.1-
060721 G96  0.1+  0.4-    060821 704  1.2+  1.1-    060828 704  0.4-  1.0-
060819 699  0.1+  0.3-    060825 704 (0.4-  2.3+)

Ephemeris:
2006 QL39                a,e,i = 5.12, 0.60, 13                  q = 2.0498
Date    TT    R. A. (2000) Decl.     Delta      r     Elong.  Phase     V
2006 08 23    01 15.76   +04 34.0    1.833    2.605   130.4    17.2    17.9
2006 09 02    01 18.04   +03 36.6    1.699    2.554   139.7    14.8    17.6
2006 09 12    01 18.24   +02 19.2    1.584    2.505   149.6    11.7    17.3
2006 09 22    01 16.41   +00 43.8    1.490    2.456   159.7     8.1    17.0
2006 10 02    01 12.83   -01 04.0    1.420    2.410   168.7     4.6    16.7
2006 10 12    01 08.16   -02 55.2    1.376    2.365   169.9     4.3    16.5
2006 10 22    01 03.24   -04 39.3    1.358    2.323   161.2     7.9    16.7
2006 11 01    00 59.09   -06 05.7    1.365    2.283   150.7    12.3    16.8
2006 11 11    00 56.63   -07 06.6    1.392    2.245   140.3    16.4    17.0
2006 11 21    00 56.50   -07 38.6    1.438    2.210   130.3    19.9    17.1
2006 12 01    00 59.07   -07 41.0    1.498    2.178   121.1    22.8    17.3
2006 12 11    01 04.39   -07 16.4    1.568    2.149   112.6    25.0    17.4
2006 12 21    01 12.33   -06 28.3    1.646    2.123   104.9    26.6    17.5
2006 12 31    01 22.69   -05 20.5    1.728    2.101    97.8    27.6    17.6
2007 01 10    01 35.18   -03 57.2    1.815    2.083    91.2    28.2    17.7
2007 01 20    01 49.53   -02 22.1    1.903    2.068    85.2    28.3    17.8
2007 01 30    02 05.50   -00 38.7    1.993    2.058    79.6    28.1    17.9
2007 02 09    02 22.87   +01 09.4    2.083    2.052    74.4    27.6    18.0
2007 02 19    02 41.45   +02 59.3    2.174    2.050    69.5    26.9    18.1
2007 03 01    03 01.08   +04 48.1    2.266    2.052    64.9    25.9    18.1
2007 03 11    03 21.59   +06 33.0    2.358    2.059    60.5    24.8    18.2

Timothy B. Spahr             (C) Copyright 2006 MPC           M.P.E.C. 2006-Q44

Read MPEC 2006-Q43 Read MPEC 2006-Q45


Our Web policy. Index to the CBAT/MPC/ICQ pages.


Valid HTML 4.01!